CW7500 Weather Reports


Display with metric or nautical units.
time (UTC)temp
F
wind
direction
speed
MPH
gust
MPH
rain 1hr
in
rain 24hr
in
rain mn
in
humidity
%
barometer
mb
20260502170508 53 234 1.0 2.0 0.00 0.04 0.04 68 1009.6
20260502164009 53 210 1.0 5.0 0.00 0.04 0.04 57 1009.7
20260502163008 54 156 3.0 7.0 0.00 0.04 0.04 60 1009.7
20260502162508 54 334 3.0 6.0 0.00 0.04 0.04 64 1009.7
20260502162008 54 188 2.0 6.0 0.00 0.04 0.04 64 1009.7
20260502161508 54 199 2.0 5.0 0.00 0.04 0.04 64 1009.7
20260502161008 54 72 1.0 5.0 0.00 0.04 0.04 70 1009.5
20260502152008 52 120 1.0 2.0 0.00 0.04 0.04 84 1010.3
20260502151508 52 253 1.0 2.0 0.00 0.04 0.04 83 1010.2
20260502151008 52 89 0.0 2.0 0.00 0.04 0.04 84 1010.5
20260502150508 52 171 2.0 6.0 0.00 0.04 0.04 84 1010.7
20260502130507 47 251 0.0 1.0 0.00 0.02 0.02 98 1011.5
20260502123508 48 241 1.0 2.0 0.00 0.02 0.02 87 1011.4
20260502123008 48 273 1.0 3.0 0.00 0.02 0.02 86 1011.2
20260502122507 48 250 1.0 2.0 0.00 0.02 0.02 87 1011.4
20260502121507 48 228 2.0 5.0 0.00 0.02 0.02 86 1011.0
20260502121007 48 244 2.0 2.0 0.00 0.02 0.02 90 1010.8
20260502120508 47 267 1.0 2.0 0.00 0.02 0.02 89 1010.6
20260502115008 47 350 1.0 1.0 0.02 0.02 0.02 87 1010.3
20260502114008 47 273 1.0 2.0 0.02 0.02 0.02 91 1010.2
20260502113508 47 243 1.0 2.0 0.02 0.02 0.02 89 1010.2
20260502113007 46 279 2.0 3.0 0.02 0.02 0.02 90 1010.2
20260502112507 46 290 1.0 2.0 0.02 0.02 0.02 92 1010.5
20260502112008 46 248 1.0 2.0 0.02 0.02 0.02 91 1010.3
20260502111507 46 182 1.0 2.0 0.02 0.02 0.02 93 1010.4
20260502111007 46 213 1.0 2.0 0.02 0.02 0.02 93 1010.5
20260502110508 46 266 1.0 2.0 0.02 0.02 0.02 93 1010.2
20260502110007 46 260 0.0 1.0 0.02 0.02 0.02 95 1010.3
20260502105007 46 135 0.0 2.0 0.00 0.00 0.00 90 1010.0
20260502104507 47 205 0.0 2.0 0.00 0.00 0.00 89 1010.2
20260502104007 46 211 1.0 2.0 0.00 0.00 0.00 88 1010.2
20260502103007 46 234 0.0 1.0 0.00 0.00 0.00 85 1010.1
20260502102007 46 227 1.0 2.0 0.00 0.00 0.00 87 1009.8
20260502101508 46 168 0.0 2.0 0.00 0.00 0.00 88 1009.8
20260502101007 46 208 1.0 2.0 0.00 0.00 0.00 86 1009.9
20260502100508 46 233 1.0 2.0 0.00 0.00 0.00 85 1009.7
20260502091507 46 141 0.0 1.0 0.00 0.00 0.00 86 1009.5
20260502091007 46 86 0.0 0.0 0.00 0.00 0.00 84 1009.5
20260502090507 46 71 0.0 0.0 0.00 0.00 0.00 84 1009.4
20260502071006 48 183 1.0 1.0 0.00 0.00 0.00 73 1009.7
20260502070507 48 193 1.0 2.0 0.00 0.00 0.00 76 1009.8
20260502070007 48 209 2.0 3.0 0.00 0.00 0.00 75 1009.9
20260502065007 48 274 1.0 3.0 0.00 0.00 0.00 72 1009.7
20260502064506 48 238 0.0 2.0 0.00 0.00 0.00 71 1009.9
20260502064007 48 40 1.0 3.0 0.00 0.02 0.00 69 1010.0
20260502063506 48 250 1.0 2.0 0.00 0.02 0.00 69 1010.2
20260502063007 48 206 1.0 1.0 0.00 0.02 0.00 70 1010.2
20260502062507 48 192 0.0 2.0 0.00 0.02 0.00 69 1010.0
20260502062006 48 203 0.0 1.0 0.00 0.02 0.00 68 1009.8
20260502061506 48 181 0.0 2.0 0.00 0.02 0.00 67 1009.7
20260502061006 48 144 1.0 3.0 0.00 0.02 0.00 67 1009.7
20260502060506 48 231 0.0 0.0 0.00 0.02 0.00 65 1009.7
20260502060007 48 151 0.0 1.0 0.00 0.02 0.00 66 1009.8
20260502055506 48 181 0.0 2.0 0.00 0.02 0.00 65 1009.8
20260502055007 48 180 1.0 2.0 0.00 0.02 0.00 64 1009.8
20260502054506 48 205 1.0 1.0 0.00 0.02 0.00 65 1009.8
20260502053506 48 219 1.0 2.0 0.00 0.02 0.00 65 1009.8
20260502053007 48 233 1.0 2.0 0.00 0.02 0.00 65 1009.9
20260502052506 48 246 1.0 1.0 0.00 0.02 0.00 63 1009.8
20260502052006 48 231 1.0 2.0 0.00 0.02 0.00 63 1009.8
20260502051506 48 203 1.0 2.0 0.00 0.02 0.00 62 1009.8
20260502051006 48 242 1.0 2.0 0.00 0.02 0.00 61 1009.8
20260502050507 48 227 1.0 2.0 0.00 0.02 0.00 63 1009.9
20260502045506 48 223 1.0 1.0 0.00 0.02 0.00 61 1009.8
20260502045006 48 206 1.0 1.0 0.00 0.02 0.00 62 1009.9
20260502044507 48 232 1.0 1.0 0.00 0.02 0.00 60 1010.0
20260502044006 48 213 0.0 1.0 0.00 0.02 0.00 61 1009.8
20260502043507 48 222 1.0 1.0 0.00 0.02 0.00 62 1010.1
20260502043006 48 233 1.0 1.0 0.00 0.02 0.00 60 1010.1
20260502042506 48 252 1.0 1.0 0.00 0.02 0.00 58 1010.3
20260502042007 48 241 1.0 2.0 0.00 0.02 0.00 57 1010.2
20260502041506 48 237 1.0 2.0 0.00 0.02 0.00 57 1010.2
20260502041006 48 249 1.0 2.0 0.00 0.02 0.00 56 1010.1
20260502035507 49 237 1.0 2.0 0.00 0.02 0.02 54 1010.0
20260502035006 49 240 1.0 2.0 0.00 0.02 0.02 53 1010.1
20260502034507 49 250 1.0 2.0 0.00 0.02 0.02 53 1010.1
20260502034006 49 252 1.0 2.0 0.00 0.02 0.02 53 1010.1
20260502033506 48 252 1.0 2.0 0.00 0.02 0.02 55 1010.2
20260502032506 48 243 1.0 3.0 0.00 0.02 0.02 53 1010.3
20260502031506 49 240 1.0 3.0 0.00 0.02 0.02 51 1010.2
20260502031006 49 238 1.0 2.0 0.00 0.02 0.02 51 1010.2
20260502030506 49 228 1.0 1.0 0.00 0.02 0.02 50 1010.0
20260502030006 50 225 0.0 1.0 0.00 0.02 0.02 48 1009.8
20260502025506 50 236 1.0 3.0 0.00 0.02 0.02 50 1009.9
20260502024506 52 151 0.0 1.0 0.00 0.02 0.02 45 1009.8
20260502024006 52 201 1.0 1.0 0.00 0.02 0.02 40 1009.7
20260502023506 53 252 0.0 0.0 0.00 0.02 0.02 37 1009.8
20260502022506 53 251 0.0 0.0 0.00 0.02 0.02 37 1009.7
20260502022006 53 300 0.0 0.0 0.00 0.02 0.02 37 1009.8
20260502021506 54 301 0.0 0.0 0.00 0.02 0.02 35 1009.7
20260502021006 54 223 0.0 0.0 0.00 0.02 0.02 35 1009.7
20260502020006 54 220 0.0 0.0 0.00 0.02 0.02 35 1009.8
20260502015506 54 235 0.0 1.0 0.00 0.02 0.02 35 1009.8
20260502014506 54 232 0.0 1.0 0.00 0.02 0.02 36 1009.7
20260502014006 54 241 1.0 1.0 0.00 0.02 0.02 35 1009.7
20260502013005 54 332 0.0 0.0 0.00 0.02 0.02 35 1009.7
20260502012506 54 224 1.0 1.0 0.00 0.02 0.02 36 1009.7
20260502012006 54 224 0.0 0.0 0.00 0.02 0.02 35 1009.7
20260502011506 54 224 0.0 0.0 0.00 0.02 0.02 35 1009.6
20260502010505 54 224 0.0 0.0 0.00 0.02 0.02 35 1009.4
20260502010006 54 224 0.0 0.0 0.00 0.02 0.02 36 1009.4
20260502005505 54 225 0.0 0.0 0.00 0.02 0.02 36 1009.4
20260502005006 54 221 0.0 0.0 0.00 0.02 0.02 37 1009.4
20260502004506 54 214 0.0 0.0 0.00 0.02 0.02 36 1009.3
20260502004006 54 215 0.0 1.0 0.00 0.02 0.02 35 1009.2
20260502003005 55 215 0.0 0.0 0.00 0.02 0.02 34 1009.1
20260502002505 54 215 0.0 0.0 0.00 0.02 0.02 35 1009.0
20260502002006 54 215 0.0 0.0 0.00 0.02 0.02 35 1008.9
20260502001006 55 215 0.0 0.0 0.00 0.02 0.02 35 1008.8
20260502000505 55 215 0.0 0.0 0.00 0.02 0.02 34 1008.7
20260502000006 55 215 0.0 0.0 0.00 0.02 0.02 35 1008.6
20260501235505 56 256 0.0 0.0 0.00 0.02 0.02 36 1008.6
20260501235006 56 266 0.0 1.0 0.00 0.02 0.02 35 1008.6
20260501234506 57 264 0.0 1.0 0.00 0.02 0.02 33 1008.4
20260501234005 57 268 0.0 0.0 0.00 0.02 0.02 33 1008.2
20260501233005 58 245 0.0 1.0 0.00 0.02 0.02 33 1008.1
20260501232506 58 252 0.0 1.0 0.00 0.02 0.02 32 1008.1
20260501232005 58 242 1.0 2.0 0.00 0.02 0.02 31 1008.0
20260501231506 59 267 1.0 2.0 0.00 0.02 0.02 34 1007.8
20260501231006 59 267 2.0 2.0 0.00 0.02 0.02 30 1007.8
20260501230506 59 277 2.0 3.0 0.00 0.02 0.02 30 1007.7
20260501230005 59 254 2.0 6.0 0.00 0.02 0.02 30 1007.8
20260501225506 59 258 2.0 5.0 0.00 0.02 0.02 30 1007.8
20260501225006 59 271 2.0 3.0 0.00 0.02 0.02 29 1007.6
20260501224505 60 236 2.0 6.0 0.00 0.02 0.02 28 1007.7
20260501223505 60 305 2.0 5.0 0.00 0.02 0.02 28 1007.7
20260501223006 60 291 2.0 5.0 0.00 0.02 0.02 27 1007.7
20260501222505 60 282 2.0 5.0 0.00 0.02 0.02 26 1007.6
20260501222006 60 274 1.0 3.0 0.00 0.02 0.02 27 1007.7
20260501221505 60 286 2.0 7.0 0.00 0.02 0.02 27 1007.7
20260501221005 60 258 2.0 5.0 0.00 0.02 0.02 30 1007.6
20260501220505 60 251 2.0 5.0 0.00 0.02 0.02 27 1007.6
20260501220005 60 258 3.0 6.0 0.00 0.02 0.02 26 1007.5
20260501215505 61 255 3.0 8.0 0.00 0.02 0.02 27 1007.5
20260501215005 61 256 3.0 7.0 0.00 0.02 0.02 25 1007.4
20260501214505 61 227 2.0 6.0 0.00 0.02 0.02 29 1007.4
20260501214005 61 250 3.0 7.0 0.00 0.02 0.02 27 1007.2
20260501213506 61 192 1.0 7.0 0.00 0.02 0.02 28 1007.2
20260501213006 62 359 2.0 7.0 0.00 0.02 0.02 26 1007.1
20260501212505 62 301 2.0 6.0 0.00 0.02 0.02 27 1007.1
20260501212005 62 291 3.0 7.0 0.00 0.02 0.02 26 1007.2
20260501211506 62 260 2.0 5.0 0.00 0.02 0.02 29 1007.1
20260501211005 62 277 3.0 7.0 0.00 0.02 0.02 25 1007.0
20260501210505 63 196 2.0 7.0 0.00 0.02 0.02 25 1007.1
20260501210005 63 244 2.0 6.0 0.00 0.02 0.02 25 1007.1
20260501205505 63 262 3.0 6.0 0.00 0.02 0.02 25 1007.1
20260501204505 63 219 2.0 6.0 0.00 0.02 0.02 25 1006.9
20260501204005 63 283 2.0 5.0 0.00 0.02 0.02 24 1006.8
20260501203505 62 236 3.0 6.0 0.00 0.02 0.02 25 1006.8
20260501203005 62 222 5.0 8.0 0.00 0.02 0.02 26 1006.8
20260501202505 62 36 2.0 6.0 0.00 0.02 0.02 26 1006.7
20260501202005 62 248 2.0 7.0 0.00 0.02 0.02 26 1006.9
20260501201505 63 260 3.0 7.0 0.00 0.02 0.02 25 1006.7
20260501201005 62 255 3.0 7.0 0.00 0.02 0.02 28 1006.7
20260501200505 63 256 3.0 7.0 0.00 0.02 0.02 25 1006.8
20260501200005 63 280 3.0 7.0 0.00 0.02 0.02 25 1006.8
20260501195005 63 32 3.0 6.0 0.00 0.02 0.02 27 1006.7
20260501194505 63 250 2.0 6.0 0.00 0.02 0.02 26 1006.9
20260501194004 63 33 2.0 9.0 0.00 0.02 0.02 27 1007.0
20260501193505 62 252 2.0 5.0 0.00 0.02 0.02 29 1006.9
20260501192505 63 298 3.0 8.0 0.00 0.02 0.02 27 1007.1
20260501192005 64 256 3.0 6.0 0.00 0.02 0.02 27 1007.1
20260501191505 63 267 2.0 7.0 0.00 0.02 0.02 29 1007.1
20260501191005 62 226 3.0 8.0 0.00 0.02 0.02 32 1007.2
20260501190505 61 281 5.0 9.0 0.00 0.02 0.02 28 1007.3
20260501190005 61 300 2.0 5.0 0.00 0.02 0.02 35 1007.3
20260501185505 60 272 3.0 7.0 0.00 0.02 0.02 33 1007.3
20260501185005 61 268 4.0 7.0 0.00 0.02 0.02 31 1007.3
20260501184505 62 216 3.0 6.0 0.00 0.02 0.02 31 1007.3
20260501184004 61 294 5.0 7.0 0.00 0.02 0.02 35 1007.3
20260501183505 61 224 4.0 7.0 0.00 0.02 0.02 34 1007.5
20260501183005 61 225 4.0 7.0 0.00 0.02 0.02 34 1007.5
20260501182505 60 157 2.0 7.0 0.00 0.02 0.02 39 1007.6
20260501182004 59 261 3.0 7.0 0.00 0.02 0.02 35 1007.6
20260501181504 58 255 5.0 7.0 0.00 0.02 0.02 36 1007.6
20260501181005 59 89 3.0 7.0 0.00 0.02 0.02 35 1007.6
20260501180504 59 264 2.0 8.0 0.00 0.02 0.02 39 1007.6
20260501180005 58 213 3.0 7.0 0.00 0.02 0.02 39 1007.7
20260501175005 60 265 4.0 7.0 0.00 0.02 0.02 33 1007.8
20260501174005 61 331 3.0 7.0 0.00 0.02 0.02 34 1007.6
20260501173505 60 277 4.0 8.0 0.00 0.02 0.02 33 1007.6